Content
SEND FEEDBACK

Daily
Averages
Monthly
Summary
Argentina

BUENOS AIRES, ARGENTINA


Home > South America > Argentina
Elevation: 66 feet     Latitude: 34 49S     Longitude: 058 32W

WEATHER
 
SELECT A DAY
Number of Records: 179,982;   Date Range: 6/30/96 - 7/23/14
 
SHARE

PRINT THIS DATA

[ ← Previous Day ]
WEATHER ALMANAC - JANUARY 23, 2013
[ Next Day → ]
[ °C ]   °F
Weather ElementAverageHighLow
Temperature79.4 °F91.4 °F (4:00 pm)66.2 °F (5:00 am)
Dewpoint66.8 °F71.6 °F (11:00 pm)62.6 °F (1:00 pm)
Humidity66.8 %100 % (5:00 am)35 % (12:00 pm)
Barometer29.83 in29.98 in (1:00 am)29.68 in (8:00 pm)
Wind Speed6.4 mph26.5 mph (5:50 pm)
Wind Gust34.5 mph (5:50 pm)
Weather ElementAverage
Visibility5.3 mi
Wind DirectionSSE (162.6 °)

Weather ElementTotal
Precipitation---
Cooling Degree Days13.8 (Base 65)
Growing Degree Days28.8 (Base 50)
Averaged from 34 records on January 23, 2013
WEATHER CONDITIONS BREAKOUT
WIND DIRECTION BREAKOUT
WEATHER BY HOUR - JANUARY 23, 2013
[ °C ]   °F
Local TimeTemperatureDewpointHumidityBarometerVisibilityWind DirectionWind SpeedGust SpeedPrecipitationEventsConditions
1:00 AM73.4 °F68.0 °F83 %29.98 inEast (80°)2.3 mphClear
2:00 AM71.6 °F66.2 °F83 %29.95 inESE (120°)3.5 mphClear
3:00 AM69.0 °F67.0 °F91 %29.94 in6.0 miESE (110°)3.5 mphScattered Clouds
3:00 AM69.8 °F66.2 °F88 %29.92 inESE (120°)3.5 mphClear
4:00 AM68.0 °F66.2 °F94 %29.92 in5.6 miESE (120°)2.3 mph
5:00 AM66.2 °F66.2 °F100 %29.92 in3.7 miCalmFogShallow Fog
6:00 AM68.0 °F67.0 °F95 %29.93 in3.0 miEast (90°)4.6 mphFogPatches of Fog
6:00 AM68.0 °F66.2 °F94 %29.92 inESE (110°)4.6 mphMist
6:09 AM68.0 °F66.2 °F94 %29.92 in1.8 miEast (90°)2.3 mphMist
7:00 AM69.8 °F68.0 °F94 %29.92 in1.9 miENE (70°)3.5 mphPartly Cloudy
8:00 AM77.0 °F69.8 °F78 %29.92 in3.1 miNE (50°)5.8 mphPartly Cloudy
9:00 AM81.0 °F66.0 °F52 %29.93 in6.0 miNE (50°)6.9 mphPartly Cloudy
9:00 AM80.6 °F66.2 °F61 %29.92 inNE (50°)4.6 mphClear
10:00 AM82.4 °F68.0 °F62 %29.89 inNNE (20°)3.5 mphClear
11:00 AM86.0 °F68.0 °F55 %29.89 in6.2 miNorth (10°)6.9 mph
12:00 PM88.0 °F64.0 °F35 %29.87 in6.0 miNW (320°)6.9 mphMostly Cloudy
12:00 PM87.8 °F64.4 °F46 %29.86 in6.2 miNorth (360°)6.9 mphPartly Cloudy
1:00 PM89.6 °F62.6 °F40 %29.83 in6.2 miNorth (360°)8.1 mphPartly Cloudy
2:00 PM89.6 °F64.4 °F43 %29.80 in6.2 miNorth (360°)6.9 mphPartly Cloudy
3:00 PM89.0 °F66.0 °F36 %29.79 in6.0 miNorth5.8 mphPartly Cloudy
3:00 PM89.6 °F66.2 °F46 %29.77 in6.2 miNNE (20°)8.1 mphPartly Cloudy
4:00 PM91.4 °F66.2 °F43 %29.77 in6.2 miNW (320°)6.9 mphPartly Cloudy
5:00 PM91.4 °F64.4 °F41 %29.74 in6.2 miNorth (360°)6.9 mphPartly Cloudy
5:21 PM89.6 °F64.4 °F43 %29.71 in6.2 miNorth (360°)8.1 mphPartly Cloudy
5:50 PM86.0 °F66.2 °F51 %29.74 in5.0 miNW (320°)26.5 mph34.5 mphRainLight Rain Showers
6:00 PM80.6 °F68.0 °F65 %29.74 in5.0 miNorth (360°)18.4 mph32.2 mphRainLight Rain Showers
6:00 PM80.0 °F68.0 °F58 %29.75 in5.0 miNorth12.7 mphRainLight Rain Showers
6:13 PM80.6 °F68.0 °F65 %29.74 in6.2 miNNE (20°)15.0 mph28.8 mphScattered Clouds
7:00 PM78.8 °F66.2 °F65 %29.71 in6.2 miENE (70°)5.8 mphScattered Clouds
8:00 PM78.8 °F69.8 °F74 %29.68 in6.2 miEast (90°)2.3 mphScattered Clouds
9:00 PM78.0 °F69.0 °F67 %29.71 in6.0 miNNW (340°)4.6 mphPartly Cloudy
9:00 PM78.8 °F68.0 °F69 %29.71 inNorth (350°)4.6 mphClear
10:00 PM77.0 °F69.8 °F78 %29.71 inNW (310°)2.3 mphClear
11:00 PM77.0 °F71.6 °F83 %29.71 inESE (120°)4.6 mphClear
Hourly data recorded from SAEZ, located miles away from Buenos Aires, Argentina







STORIES FROM OUR PARTNERS